EW7507 Weather Reports


Display with metric or nautical units.
time (UTC)temp
F
wind
direction
speed
MPH
gust
MPH
rain 1hr
in
rain 24hr
in
rain mn
in
humidity
%
barometer
mb
20260509163317 63 275 2.0 5.0 0.00 0.00 0.00 44 975.6
20260509162820 62 292 2.0 5.0 0.00 0.00 0.00 45 975.5
20260509162323 62 292 2.0 7.0 0.00 0.00 0.00 45 975.5
20260509162317 62 293 4.0 5.0 0.00 0.00 0.00 44 975.5
20260509161318 62 290 4.0 9.0 0.00 0.00 0.00 43 975.5
20260509160819 62 275 5.0 9.0 0.00 0.00 0.00 43 975.5
20260509160318 62 248 2.0 6.0 0.00 0.00 0.00 44 975.4
20260509155819 61 262 3.0 7.0 0.00 0.00 0.00 44 975.3
20260509155317 61 265 2.0 9.0 0.00 0.00 0.00 44 975.4
20260509154818 61 276 3.0 9.0 0.00 0.00 0.00 44 975.4
20260509154316 60 290 5.0 7.0 0.00 0.00 0.00 45 975.4
20260509153818 60 279 4.0 9.0 0.00 0.00 0.00 47 975.4
20260509153315 59 337 5.0 9.0 0.00 0.00 0.00 47 975.4
20260509152820 59 193 0.0 6.0 0.00 0.00 0.00 49 975.3
20260509152315 58 193 2.0 6.0 0.00 0.00 0.00 49 975.3
20260509151818 58 196 2.0 4.0 0.00 0.00 0.00 50 975.2
20260509151314 58 220 2.0 4.0 0.00 0.00 0.00 50 975.2
20260509150818 58 223 2.0 4.0 0.00 0.00 0.00 53 975.2
20260509150314 58 244 2.0 4.0 0.00 0.00 0.00 50 975.1
20260509145815 58 252 2.0 4.0 0.00 0.00 0.00 52 975.2
20260509145323 56 210 2.0 4.0 0.00 0.00 0.00 55 975.2
20260509145316 57 210 1.0 4.0 0.00 0.00 0.00 53 975.2
20260509144315 56 210 1.0 3.0 0.00 0.00 0.00 55 975.1
20260509143819 55 210 1.0 4.0 0.00 0.00 0.00 57 975.1
20260509143315 54 210 2.0 4.0 0.00 0.00 0.00 58 975.0
20260509142817 53 279 1.0 4.0 0.00 0.00 0.00 61 975.1
20260509142314 52 279 3.0 4.0 0.00 0.00 0.00 63 975.0
20260509141821 50 281 2.0 4.0 0.00 0.00 0.00 65 975.0
20260509141814 51 281 2.0 4.0 0.00 0.00 0.00 64 975.1
20260509141438 50 281 2.0 4.0 0.00 0.00 0.00 66 975.0
20260509140320 49 281 1.0 3.0 0.00 0.00 0.00 68 974.9
20260509140313 49 281 2.0 3.0 0.00 0.00 0.00 67 975.0
20260509135313 48 281 1.0 3.0 0.00 0.00 0.00 67 974.8
20260509134815 48 281 0.0 4.0 0.00 0.00 0.00 68 974.9
20260509134312 48 281 2.0 4.0 0.00 0.00 0.00 69 974.8
20260509133814 47 281 3.0 4.0 0.00 0.00 0.00 70 974.6
20260509133313 47 279 3.0 4.0 0.00 0.00 0.00 73 974.6
20260509132823 47 279 1.0 2.0 0.00 0.00 0.00 74 974.5
20260509132814 47 279 2.0 3.0 0.00 0.00 0.00 74 974.5
20260509131813 47 279 0.0 2.0 0.00 0.00 0.00 74 974.4
20260509131311 47 279 0.0 2.0 0.00 0.00 0.00 74 974.3
20260509130813 47 279 1.0 2.0 0.00 0.00 0.00 73 974.3
20260509130311 47 279 1.0 3.0 0.00 0.00 0.00 74 974.3
20260509125814 47 279 1.0 3.0 0.00 0.00 0.00 73 974.1
20260509125312 47 279 3.0 3.0 0.00 0.00 0.00 73 974.0
20260509124822 47 279 2.0 3.0 0.00 0.00 0.00 74 973.9
20260509124814 47 279 1.0 3.0 0.00 0.00 0.00 74 974.0
20260509123814 47 279 1.0 3.0 0.00 0.00 0.00 75 973.8
20260509123311 47 279 1.0 3.0 0.00 0.00 0.00 75 973.7
20260509122821 47 279 3.0 4.0 0.00 0.00 0.00 76 973.5
20260509122812 47 279 2.0 4.0 0.00 0.00 0.00 75 973.7
20260509121812 47 279 2.0 5.0 0.00 0.00 0.00 76 973.6
20260509121311 47 279 3.0 5.0 0.00 0.00 0.00 76 973.4
20260509120819 47 251 3.0 5.0 0.00 0.00 0.00 76 973.4
20260509120812 47 278 4.0 5.0 0.00 0.00 0.00 76 973.4
20260509115811 47 204 2.0 4.0 0.00 0.00 0.00 76 973.4
20260509115311 47 202 2.0 3.0 0.00 0.00 0.00 76 973.3
20260509114812 47 200 2.0 3.0 0.00 0.00 0.00 75 973.2
20260509114308 47 200 1.0 3.0 0.00 0.00 0.00 74 973.3
20260509113811 47 200 0.0 4.0 0.00 0.00 0.00 74 973.2
20260509113310 47 200 2.0 4.0 0.00 0.00 0.00 73 973.2
20260509112818 48 230 2.0 3.0 0.00 0.00 0.00 72 973.1
20260509112811 48 203 3.0 4.0 0.00 0.00 0.00 73 973.1
20260509111819 49 230 1.0 3.0 0.00 0.00 0.00 71 973.1
20260509111812 49 230 2.0 3.0 0.00 0.00 0.00 71 973.1
20260509110819 50 230 1.0 2.0 0.00 0.00 0.00 71 973.1
20260509110811 49 230 1.0 1.0 0.00 0.00 0.00 71 973.1
20260509105818 50 230 2.0 5.0 0.00 0.00 0.00 70 973.0
20260509105810 50 230 1.0 4.0 0.00 0.00 0.00 71 973.0
20260509105434 50 228 3.0 5.0 0.00 0.00 0.00 69 973.0
20260509104308 50 206 2.0 4.0 0.00 0.00 0.00 69 973.0
20260509103809 51 192 2.0 4.0 0.00 0.00 0.00 68 972.9
20260509103309 51 192 1.0 4.0 0.00 0.00 0.00 68 973.0
20260509102817 51 190 1.0 4.0 0.00 0.00 0.00 67 972.9
20260509102810 51 190 2.0 3.0 0.00 0.00 0.00 67 973.0
20260509101809 51 190 2.0 4.0 0.00 0.00 0.00 67 972.9
20260509101307 51 190 2.0 6.0 0.00 0.00 0.00 66 973.0
20260509100809 51 188 4.0 6.0 0.00 0.00 0.00 66 972.9
20260509100307 52 193 2.0 6.0 0.00 0.00 0.00 66 972.7
20260509095809 52 185 2.0 9.0 0.00 0.00 0.00 65 972.8
20260509095307 52 166 4.0 9.0 0.00 0.00 0.00 65 972.7
20260509094809 53 197 3.0 7.0 0.00 0.00 0.00 64 972.5
20260509094307 53 195 4.0 7.0 0.00 0.00 0.00 64 972.5
20260509093807 53 209 1.0 7.0 0.00 0.00 0.00 65 972.4
20260509093306 53 219 1.0 9.0 0.00 0.00 0.00 65 972.3
20260509092808 53 179 1.0 10.0 0.00 0.00 0.00 65 972.3
20260509092307 53 190 2.0 10.0 0.00 0.00 0.00 64 972.3
20260509091809 53 169 1.0 13.0 0.00 0.00 0.00 66 972.3
20260509091313 53 197 1.0 9.0 0.00 0.00 0.00 65 972.3
20260509091306 53 209 2.0 13.0 0.00 0.00 0.00 65 972.4
20260509090313 53 159 3.0 9.0 0.00 0.00 0.00 63 972.4
20260509090305 53 207 0.0 9.0 0.00 0.00 0.00 63 972.3
20260509085307 54 178 1.0 6.0 0.00 0.00 0.00 63 972.4
20260509084807 54 192 0.0 3.0 0.00 0.00 0.00 62 972.3
20260509084305 54 182 0.0 7.0 0.00 0.00 0.00 62 972.4
20260509083808 54 183 1.0 7.0 0.00 0.00 0.00 62 972.3
20260509083304 54 212 1.0 5.0 0.00 0.00 0.00 62 972.2
20260509082805 54 183 0.0 5.0 0.00 0.00 0.00 62 972.2
20260509082307 55 185 0.0 9.0 0.00 0.00 0.00 61 972.2
20260509081805 55 189 1.0 9.0 0.00 0.00 0.00 61 972.2
20260509081304 55 179 0.0 5.0 0.00 0.00 0.00 61 972.2
20260509080806 55 168 0.0 9.0 0.00 0.00 0.00 62 972.2
20260509080305 55 193 1.0 9.0 0.00 0.00 0.00 60 972.2
20260509075805 55 200 0.0 5.0 0.00 0.00 0.00 60 972.1
20260509075306 56 193 1.0 5.0 0.00 0.00 0.00 60 972.1
20260509074807 56 173 1.0 5.0 0.00 0.00 0.00 60 972.2
20260509074304 56 166 1.0 3.0 0.00 0.00 0.00 60 972.2
20260509073805 56 185 0.0 4.0 0.00 0.00 0.00 59 972.1
20260509073303 56 162 0.0 6.0 0.00 0.00 0.00 59 972.0
20260509072806 57 173 1.0 6.0 0.00 0.00 0.00 58 972.0
20260509072306 57 188 0.0 5.0 0.00 0.00 0.00 58 971.9
20260509071811 57 178 0.0 5.0 0.00 0.00 0.00 58 971.9
20260509071806 57 164 0.0 4.0 0.00 0.00 0.00 59 971.9
20260509070806 57 175 0.0 5.0 0.00 0.00 0.00 55 972.0
20260509070302 57 159 0.0 4.0 0.00 0.00 0.00 54 971.9
20260509065804 57 179 1.0 4.0 0.00 0.00 0.00 55 971.8
20260509065305 57 168 0.0 1.0 0.00 0.00 0.00 55 971.8
20260509064804 58 209 0.0 0.0 0.00 0.00 0.00 55 971.8
20260509064309 59 209 0.0 0.0 0.00 0.00 0.00 52 971.7
20260509064302 59 209 0.0 0.0 0.00 0.00 0.00 53 971.7
20260509063304 59 209 0.0 1.0 0.00 0.00 0.00 51 971.7
20260509062803 59 209 0.0 1.0 0.00 0.00 0.00 51 971.7
20260509062300 59 247 0.0 3.0 0.00 0.00 0.00 50 971.7
20260509061803 59 233 0.0 7.0 0.00 0.00 0.00 50 971.7
20260509061300 59 233 0.0 7.0 0.00 0.00 0.00 50 971.7
20260509060810 59 193 0.0 2.0 0.00 0.00 0.00 49 971.7
20260509060803 59 231 0.0 3.0 0.00 0.00 0.00 50 971.7
20260509055802 60 206 0.0 2.0 0.00 0.00 0.00 49 971.6
20260509055301 60 226 0.0 3.0 0.00 0.00 0.00 48 971.6
20260509054800 60 227 0.0 12.0 0.00 0.00 0.00 47 971.7
20260509054300 61 234 0.0 12.0 0.00 0.00 0.00 46 971.6
20260509053800 61 190 0.0 10.0 0.00 0.00 0.00 46 971.6
20260509053307 61 226 0.0 5.0 0.00 0.00 0.00 45 971.6
20260509053300 61 243 0.0 10.0 0.00 0.00 0.00 46 971.6
20260509052301 61 206 0.0 1.0 0.00 0.00 0.00 43 971.6
20260509051801 61 257 0.0 1.0 0.00 0.00 0.00 43 971.5
20260509051300 61 257 0.0 1.0 0.00 0.00 0.00 43 971.5
20260509050801 61 257 0.0 0.0 0.00 0.00 0.00 42 971.5
20260509050259 61 257 0.0 0.0 0.00 0.00 0.00 42 971.5
20260509045801 61 257 0.0 0.0 0.00 0.00 0.00 42 971.3
20260509045300 62 257 0.0 2.0 0.00 0.00 0.00 43 971.3
20260509044800 62 257 0.0 2.0 0.00 0.00 0.00 42 971.2
20260509044259 62 257 0.0 1.0 0.00 0.00 0.00 41 971.2
20260509043802 63 257 0.0 1.0 0.00 0.00 0.00 40 971.2
20260509043306 64 257 0.0 2.0 0.00 0.00 0.00 37 971.2
20260509043259 63 257 0.0 2.0 0.00 0.00 0.00 38 971.1
20260509042259 64 255 0.0 1.0 0.00 0.00 0.00 36 971.1
20260509041800 64 268 0.0 1.0 0.00 0.00 0.00 36 971.0
20260509041258 64 189 0.0 1.0 0.00 0.00 0.00 32 970.9
20260509040800 64 175 0.0 0.0 0.00 0.00 0.00 30 970.9
20260509040259 64 175 0.0 1.0 0.00 0.00 0.00 30 970.8
20260509035800 65 175 0.0 3.0 0.00 0.00 0.00 30 970.7
20260509035258 65 264 0.0 3.0 0.00 0.00 0.00 29 970.6
20260509034801 65 169 0.0 1.0 0.00 0.00 0.00 28 970.6
20260509034258 65 165 0.0 4.0 0.00 0.00 0.00 28 970.4
20260509033759 66 168 1.0 4.0 0.00 0.00 0.00 28 970.3
20260509033255 66 176 0.0 6.0 0.00 0.00 0.00 28 970.2
20260509032759 66 104 0.0 7.0 0.00 0.00 0.00 28 970.2
20260509032256 66 93 1.0 7.0 0.00 0.00 0.00 28 969.9
20260509031807 66 34 0.0 2.0 0.00 0.00 0.00 28 969.6
20260509031759 66 79 0.0 1.0 0.00 0.00 0.00 28 969.7
20260509030759 67 65 0.0 7.0 0.00 0.00 0.00 30 969.5
20260509030304 67 56 1.0 6.0 0.00 0.00 0.00 26 969.2
20260509030256 67 59 0.0 7.0 0.00 0.00 0.00 27 969.4
20260509025306 68 66 1.0 10.0 0.00 0.00 0.00 26 969.0
20260509025256 67 56 0.0 10.0 0.00 0.00 0.00 26 969.1
20260509024257 68 51 0.0 4.0 0.00 0.00 0.00 25 968.8
20260509023757 68 0 0.0 7.0 0.00 0.00 0.00 25 968.8
20260509023257 68 66 1.0 12.0 0.00 0.00 0.00 25 968.7
20260509022758 69 52 1.0 16.0 0.00 0.00 0.00 24 968.6
20260509022306 69 63 2.0 9.0 0.00 0.00 0.00 24 968.5
20260509022257 69 66 0.0 16.0 0.00 0.00 0.00 24 968.3
20260509021304 70 83 1.0 12.0 0.00 0.00 0.00 24 968.2
20260509021256 70 358 0.0 12.0 0.00 0.00 0.00 24 968.3
20260509020255 70 54 1.0 11.0 0.00 0.00 0.00 23 968.0
20260509015757 71 75 1.0 15.0 0.00 0.00 0.00 22 967.9
20260509015255 71 58 5.0 16.0 0.00 0.00 0.00 21 967.8
20260509014806 71 37 2.0 12.0 0.00 0.00 0.00 20 967.8
20260509014758 71 55 5.0 16.0 0.00 0.00 0.00 21 967.8
20260509013805 72 59 1.0 12.0 0.00 0.00 0.00 21 967.6
20260509013756 72 49 0.0 12.0 0.00 0.00 0.00 21 967.7
20260509012756 72 61 0.0 9.0 0.00 0.00 0.00 20 967.7
20260509012302 72 47 1.0 13.0 0.00 0.00 0.00 19 967.7
20260509012254 72 71 1.0 13.0 0.00 0.00 0.00 20 967.7
20260509011300 73 41 1.0 12.0 0.00 0.00 0.00 19 967.6
20260509011254 72 27 4.0 12.0 0.00 0.00 0.00 19 967.7
20260509010913 73 31 3.0 14.0 0.00 0.00 0.00 19 967.6
20260509005803 73 8 2.0 11.0 0.00 0.00 0.00 18 967.5
20260509005754 73 3 2.0 14.0 0.00 0.00 0.00 18 967.6
20260509004754 74 0 0.0 17.0 0.00 0.00 0.00 19 967.5
20260509004254 74 16 2.0 17.0 0.00 0.00 0.00 19 967.6
20260509003755 75 4 4.0 11.0 0.00 0.00 0.00 19 967.6
20260509003253 75 0 4.0 9.0 0.00 0.00 0.00 18 967.5
20260509002803 76 0 0.0 7.0 0.00 0.00 0.00 18 967.5
20260509002755 75 327 0.0 7.0 0.00 0.00 0.00 19 967.6
20260509001755 76 13 2.0 7.0 0.00 0.00 0.00 18 967.6
20260509001253 76 6 0.0 4.0 0.00 0.00 0.00 18 967.6
20260509000754 76 347 0.0 3.0 0.00 0.00 0.00 18 967.7
20260509000252 76 326 0.0 5.0 0.00 0.00 0.00 18 967.6
20260508235752 76 345 0.0 5.0 0.00 0.00 0.00 18 967.7
20260508235253 77 343 0.0 4.0 0.00 0.00 0.00 17 967.6
20260508234753 77 358 0.0 6.0 0.00 0.00 0.00 17 967.7
20260508234259 77 353 0.0 9.0 0.00 0.00 0.00 17 967.6
20260508234252 77 353 0.0 7.0 0.00 0.00 0.00 17 967.7
20260508233251 77 0 3.0 11.0 0.00 0.00 0.00 17 967.7
20260508232752 77 20 0.0 11.0 0.00 0.00 0.00 17 967.7
20260508232252 77 296 0.0 15.0 0.00 0.00 0.00 17 967.8
20260508231801 78 326 2.0 12.0 0.00 0.00 0.00 17 967.8
20260508231753 78 8 6.0 15.0 0.00 0.00 0.00 16 967.8
20260508230800 78 319 0.0 9.0 0.00 0.00 0.00 17 967.8
20260508230754 78 336 0.0 5.0 0.00 0.00 0.00 16 967.8
20260508225751 78 8 1.0 9.0 0.00 0.00 0.00 16 967.8
20260508225251 78 323 1.0 11.0 0.00 0.00 0.00 16 967.9
20260508224750 78 251 3.0 19.0 0.00 0.00 0.00 17 967.8
20260508224256 78 327 0.0 15.0 0.00 0.00 0.00 16 968.0
20260508224250 78 6 2.0 19.0 0.00 0.00 0.00 17 968.0
20260508223257 78 7 1.0 15.0 0.00 0.00 0.00 17 968.0
20260508223249 78 317 2.0 14.0 0.00 0.00 0.00 16 968.0
20260508222251 78 11 3.0 15.0 0.00 0.00 0.00 16 968.1
20260508221752 78 257 0.0 16.0 0.00 0.00 0.00 16 968.0
20260508221250 78 336 3.0 26.0 0.00 0.00 0.00 15 968.1
20260508220751 78 348 8.0 26.0 0.00 0.00 0.00 16 968.1
20260508220248 79 289 0.0 16.0 0.00 0.00 0.00 17 968.1
20260508215759 78 344 0.0 14.0 0.00 0.00 0.00 17 968.2
20260508215751 79 283 2.0 15.0 0.00 0.00 0.00 16 968.3
20260508214751 78 329 4.0 14.0 0.00 0.00 0.00 16 968.3
20260508214249 78 324 2.0 10.0 0.00 0.00 0.00 16 968.3
20260508213751 78 345 0.0 13.0 0.00 0.00 0.00 16 968.5
20260508213249 78 345 1.0 14.0 0.00 0.00 0.00 16 968.5
20260508212750 78 326 6.0 14.0 0.00 0.00 0.00 16 968.6
20260508212248 78 13 0.0 13.0 0.00 0.00 0.00 18 968.5
20260508211749 78 11 0.0 16.0 0.00 0.00 0.00 16 968.5
20260508211247 78 338 9.0 16.0 0.00 0.00 0.00 17 968.6
20260508210749 78 7 0.0 14.0 0.00 0.00 0.00 16 968.6
20260508210249 78 16 1.0 17.0 0.00 0.00 0.00 17 968.7
20260508205749 78 320 4.0 19.0 0.00 0.00 0.00 16 968.6
20260508205247 78 302 11.0 19.0 0.00 0.00 0.00 17 968.6
20260508204749 77 1 4.0 12.0 0.00 0.00 0.00 16 968.6
20260508204252 77 0 6.0 16.0 0.00 0.00 0.00 17 968.6
20260508204246 77 353 2.0 16.0 0.00 0.00 0.00 16 968.7
20260508203247 77 354 0.0 16.0 0.00 0.00 0.00 17 968.6
20260508202749 77 348 3.0 14.0 0.00 0.00 0.00 17 968.6
20260508202246 78 330 5.0 14.0 0.00 0.00 0.00 17 968.7
20260508201749 77 283 2.0 13.0 0.00 0.00 0.00 17 968.7
20260508201247 77 336 0.0 16.0 0.00 0.00 0.00 19 968.7
20260508200748 77 337 3.0 16.0 0.00 0.00 0.00 17 968.8
20260508200246 76 20 5.0 16.0 0.00 0.00 0.00 18 968.7
20260508195747 76 319 5.0 21.0 0.00 0.00 0.00 18 968.9
20260508195247 76 293 9.0 22.0 0.00 0.00 0.00 17 968.9
20260508194754 76 333 7.0 18.0 0.00 0.00 0.00 18 968.8
20260508194746 76 338 3.0 22.0 0.00 0.00 0.00 18 968.7
20260508193755 76 312 5.0 18.0 0.00 0.00 0.00 19 968.8
20260508193747 76 0 3.0 18.0 0.00 0.00 0.00 19 968.7
20260508193412 76 343 0.0 22.0 0.00 0.00 0.00 19 968.8
20260508192245 76 289 8.0 22.0 0.00 0.00 0.00 19 968.9
20260508191754 75 295 6.0 18.0 0.00 0.00 0.00 20 969.0
20260508191746 76 254 2.0 15.0 0.00 0.00 0.00 19 969.0
20260508190747 75 316 6.0 19.0 0.00 0.00 0.00 19 969.0
20260508190244 75 320 3.0 19.0 0.00 0.00 0.00 20 969.1
20260508185747 75 300 3.0 20.0 0.00 0.00 0.00 21 969.1
20260508185244 74 266 5.0 20.0 0.00 0.00 0.00 20 969.2
20260508184746 74 329 9.0 17.0 0.00 0.00 0.00 21 969.2
20260508184244 74 317 9.0 18.0 0.00 0.00 0.00 20 969.3
20260508183754 74 285 12.0 21.0 0.00 0.00 0.00 20 969.5
20260508183745 74 321 12.0 21.0 0.00 0.00 0.00 21 969.4
20260508183409 73 321 8.0 20.0 0.00 0.00 0.00 21 969.4
20260508182245 73 319 9.0 20.0 0.00 0.00 0.00 21 969.5
20260508181745 73 312 6.0 18.0 0.00 0.00 0.00 21 969.5
20260508181245 73 0 10.0 18.0 0.00 0.00 0.00 22 969.6
20260508180752 73 313 6.0 19.0 0.00 0.00 0.00 22 969.6
20260508180745 73 0 4.0 17.0 0.00 0.00 0.00 22 969.6
20260508175752 72 333 7.0 16.0 0.00 0.00 0.00 22 969.7
20260508175744 72 338 4.0 19.0 0.00 0.00 0.00 23 969.7
20260508174745 72 319 3.0 19.0 0.00 0.00 0.00 23 969.8
20260508174242 72 321 7.0 19.0 0.00 0.00 0.00 22 969.8
20260508173745 72 296 2.0 15.0 0.00 0.00 0.00 22 969.8
20260508173243 72 350 4.0 16.0 0.00 0.00 0.00 23 969.9
20260508172742 72 326 4.0 18.0 0.00 0.00 0.00 24 969.8
20260508172243 71 0 9.0 18.0 0.00 0.00 0.00 23 969.9
20260508171742 71 330 8.0 17.0 0.00 0.00 0.00 24 969.9
20260508171243 71 302 8.0 17.0 0.00 0.00 0.00 24 969.9
20260508170743 70 254 9.0 16.0 0.00 0.00 0.00 25 969.9
20260508170243 69 333 7.0 23.0 0.00 0.00 0.00 25 969.9
20260508165743 69 310 10.0 23.0 0.00 0.00 0.00 25 969.9
20260508165249 69 276 4.0 13.0 0.00 0.00 0.00 30 969.9
20260508165242 70 319 13.0 19.0 0.00 0.00 0.00 28 969.9
20260508164241 69 331 4.0 12.0 0.00 0.00 0.00 30 969.9